Regional Weather Roundup
Issued by NWS Upton, NY

Home | Current Version | Previous Version | Text Only | Print | Product List | Glossary On
Versions: 1 2 3 4 5 6 7 8 9 10 11 12 13 14 15 16 17 18 19 20 21 22 23 24 25 26 27 28 29 30 31 32 33 34 35 36 37 38 39 40 41 42 43 44 45 46 47 48 49 50
441
ASUS41 KOKX 210008
RWROKX

REGIONAL WEATHER ROUNDUP
NATIONAL WEATHER SERVICE NEW YORK NY
800 PM EDT WED SEP 20 2017

NOTE: "FAIR" INDICATES FEW OR NO CLOUDS BELOW 12,000 FEET WITH NO
SIGNIFICANT WEATHER AND/OR OBSTRUCTIONS TO VISIBILITY.

NYZ071-072-176-178-NJZ106-104-210100-
NEW YORK CITY METRO AREA

CITY           SKY/WX    TMP DP  RH WIND       PRES   REMARKS
Central Park   PTCLDY    77  63  61 MISG      29.94R
Bronx Bot Gard   N/A     75  61  60 N5        29.93R
LaGuardia APRT MOCLDY    77  65  66 N12       29.90R
Kennedy INTL   CLOUDY    77  64  64 N14       29.91R
Breezy Point     N/A     75 N/A N/A N10G16      N/A
Newark/Liberty CLOUDY    78  64  61 N9        29.91R
Teterboro      CLOUDY    77  64  64 N9        29.90R
$$

NYZ177-179-078>081-210100-
LONG ISLAND NEW YORK

CITY           SKY/WX    TMP DP  RH WIND       PRES   REMARKS
Jones Beach      N/A     75 N/A N/A N16         N/A
Matinecock PT    N/A     73 N/A N/A N12         N/A
Farmingdale    MOCLDY    75  63  66 N10       29.89R
MacArthur/ISP  CLOUDY    75  65  70 N13       29.87S
Shirley        CLOUDY    76  66  71 N8        29.88R
Mt Sinai Harb    N/A    N/A N/A N/A N13         N/A
Westhampton    CLOUDY    73  64  73 N12       29.88R
East Hampton   CLOUDY    71  66  84 N15G22    29.85R
Montauk          N/A     71  66  84 N14G25    29.84R
$$

NYZ052-065-067-210100-
HUDSON VALLEY

CITY           SKY/WX    TMP DP  RH WIND       PRES   REMARKS
White Plains   CLOUDY    73  64  73 NW8       29.91R
Larchmont Harb   N/A     75 N/A N/A NW10        N/A
Croton On Huds   N/A     73 N/A N/A NW1G7       N/A
Newburgh       MOCLDY    73  66  78 NE9       29.95S
Montgomery     CLOUDY    70  65  84 N6        29.94R
Poughkeepsie   MOCLDY    72  63  73 N3        29.92R
Albany         CLOUDY    72  63  73 N6        29.97R
$$

NJZ001-105-106-008-010-013-015-019>022-104-210100-
NEW JERSEY

CITY           SKY/WX    TMP DP  RH WIND       PRES   REMARKS
Newark/Liberty CLOUDY    78  64  61 N9        29.91R
Teterboro      CLOUDY    77  64  64 N9        29.90R
Caldwell       PTCLDY    73  67  81 CALM      29.93R
Somerville     NOT AVBL
Linden         FAIR      78  62  58 CALM      29.91S
Perth Amboy      N/A     77 N/A N/A N8          N/A
Sussex         PTCLDY    70  67  90 CALM      29.95R
Andover          N/A     69  66  90 CALM      29.95R
Trenton        PTCLDY    77  67  71 CALM      29.92R
Millville      CLEAR     77  69  76 N3        29.92R
Atlantic City  CLOUDY    74  68  81 NW5       29.92R
Wrightstown    CLOUDY    74  64  70 N6        29.89S
Toms River     PTCLDY    73  66  78 NW6       29.92R
Belmar         PTCLDY    74  65  73 NW5       29.92R
$$

PAZ047>061-062-071-210100-
EASTERN PENNSYLVANIA

CITY           SKY/WX    TMP DP  RH WIND       PRES   REMARKS
Philadelphia   PTCLDY    80  64  58 VRB6      29.92R
Allentown      PTCLDY    74  61  63 CALM      29.94R
Scranton       CLEAR     73  61  65 E3        29.98R
$$

CTZ002-004>006-009-010-012-RIZ004-006-007-MAZ004-011-015-210100-
SOUTHERN NEW ENGLAND
 IN CT

CITY           SKY/WX    TMP DP  RH WIND       PRES   REMARKS
Bradley INTL   CLOUDY    73  64  73 N7        29.91R
Hartford       CLOUDY    75  65  70 N9        29.90R
Danbury        MOCLDY    73  64  73 N6        29.94R
Wtrbury/Oxford CLOUDY    71  63  75 N14       29.93R
Norwalk Harbor   N/A     75 N/A N/A N9          N/A
Bridgeport     CLOUDY    76  63  64 N13G20    29.89R
Meriden        CLOUDY    74  64  71 N9        29.90R
New Haven      CLOUDY    75  63  66 N14G20    29.88R
Chester        MOCLDY    73  66  78 N10G18    29.89R
Groton         CLOUDY    71  66  84 N20G28    29.84R
Wilimantic     CLOUDY    72  67  84 N12       29.89R

 IN RI

CITY           SKY/WX    TMP DP  RH WIND       PRES   REMARKS
Providence     LGT RAIN  69  68  96 N21G29    29.86R
Block Island   CLOUDY    69  66  90 N18G36    29.81R
Westerly       CLOUDY    72  66  81 N16G26    29.84R
 IN MA

CITY           SKY/WX    TMP DP  RH WIND       PRES   REMARKS
Boston         CLOUDY    71  67  87 N16       29.88R
Worcester      CLOUDY    66  63  90 N12G21    29.93S
Westfield      CLOUDY    73  65  75 N5        29.92R
Provincetown   MOCLDY    63  62  97 NE20G28   29.81R
Nantucket      HVY RAIN  66  66 100 N32G46    29.66S FOG
$$

ANZ330-335-338-340-345-350-353-355-210100-
COASTAL MARINE OBSERVATIONS


STATION/POSITION TIME  SKY/WX   TEMP    WIND        PRES    VSBY  WAVE
                                AIR SEA DIR/SP/G                  HT/PER
                 (UTC)          (F)     (DEG/KT/KT) (MB)    (MI)  (FT/S)
NY HARB ENTRANCE 2250            74 71  340/ 14/ 16 1010.8          6/ 9
20 S FIRE ISLAND 2250            72 68  360/ 16/ 17 1010.6          7/10
GREAT SOUTH BAY  2315            76 71  360/ 16/ 21   N/A
23 SSW MONTAUK P 2250            69 66              1008.9          8/10
15 E BARNEGAT LI 2330               69                N/A           7/10
HUDSON CANYON    2250            72 69  360/ 23/ 29 1008.1         10/10
KINGS POINT      2336            75 71   30/ 13/ 16 1013.0
EXECUTION ROCKS  2345            76      10/ 12/ 17   N/A
WESTERN LI SOUND NOT AVBL
CENTRAL LI SOUND NOT AVBL
EASTERN LI SOUND NOT AVBL
ROBBINS REEF     2342            78     350/  7/  9 1013.2
$$


>>>>>>>>>>>>>>>>>>>>>>>>>>>> KEY <<<<<<<<<<<<<<<<<<<<<<<<<<<
>                                                          <
>     SKY/WX - Sky Condition/Present Weather               <
>     TMP    - Temperature in Fahrenheit                   <
>     DP     - Dew Point in Fahrenheit                     <
>     RH     - Relative Humidity in Percent                <
>     WIND   - Direction (from) and Speed in MPH           <
>     PRES   - Mean Sea Level Pressure (inches of Hg)      <
>     WCI    - Wind Chill Index                            <
>     VSB    - VISIBILITY IN MILES                         <
>     HX     - HEAT INDEX                                  <
>     TC     - TEMPERATURE IN CELSIUS                      <
>     VRB    - VARIABLE WIND DIRECTION                     <
>                                                          <
>>>>>>>>>>>>>>>>>>>>>>>>>>>> KEY <<<<<<<<<<<<<<<<<<<<<<<<<<<




USA.gov is the U.S. government's official web portal to all federal, state and local government web resources and services.